Simultaneous Nadir Overpasses (SNOs) Predictions

Prediction of SNOs between GOES-15 and METOP-B Satellite Orbit:

Table of predicted SNOs for the next 14.0 days since TLE Epoch: 3/2/2024
Index Date Time (GOES-15) GOES-15 Lat,Lon METOP-B Lat,Lon Distance(km) Time Diff (sec)
1 03/02/2024 05:17:31 0.01, 61.29 -0.23, 62.20 104.32 80
2 03/03/2024 17:36:33 0.00, 61.26 -0.82, 57.59 418.26 80
3 03/04/2024 17:13:14 -0.00, 61.26 0.30, 62.58 149.87 80
4 03/06/2024 05:32:07 -0.00, 61.29 0.70, 58.00 374.39 80
5 03/07/2024 05:14:08 0.00, 61.29 -0.36, 62.99 194.08 80
6 03/08/2024 17:33:10 0.00, 61.26 -0.61, 58.37 328.71 80
7 03/09/2024 17:09:51 -0.00, 61.26 0.45, 63.37 239.21 80
8 03/11/2024 05:28:44 -0.00, 61.30 0.55, 58.79 285.84 80
9 03/12/2024 05:10:45 0.00, 61.30 -0.52, 63.78 282.50 80
10 03/13/2024 17:29:46 0.00, 61.27 -0.49, 59.17 240.14 80
11 03/14/2024 17:06:28 -0.00, 61.28 0.64, 64.15 327.31 80
